GLO1129 SBCA-SBGR

Flight info

Callsign GLO1129
Flight time 1h 4m
Altitude 37000
Route ROKIR UZ28 XONUG UZ121 BUXUK
Aircraft B738/M-SDFGIKLORWX/LB1

Departure

Time 2026-05-06 23:33
Airport Coronel Adalberto Mendes da Silva Airport (SBCA)

Arrival

Time 2026-05-07 00:37
Airport São Paulo/Guarulhos–Governor André Franco Montoro International Airport (SBGR)
Time Latitude Longitude Altitude Speed Heading
2026-05-06 23:11 -25.00134 -53.50334 2479 ft 0 kts 225°
2026-05-06 23:25 -25.00127 -53.50326 2479 ft 2 kts 225°
2026-05-06 23:25 -25.00116 -53.50314 2479 ft 2 kts 225°
2026-05-06 23:25 -25.00105 -53.50303 2479 ft 2 kts 223°
2026-05-06 23:25 -25.00091 -53.50296 2479 ft 2 kts 178°
2026-05-06 23:26 -25.00077 -53.50301 2479 ft 2 kts 142°
2026-05-06 23:26 -25.00069 -53.50310 2479 ft 0 kts 129°
2026-05-06 23:26 -25.00068 -53.50311 2479 ft 0 kts 130°
2026-05-06 23:29 -25.00074 -53.50303 2479 ft 2 kts 126°
2026-05-06 23:29 -25.00077 -53.50272 2479 ft 5 kts 63°
2026-05-06 23:30 -25.00039 -53.50228 2480 ft 9 kts 45°
2026-05-06 23:30 -24.99970 -53.50183 2480 ft 13 kts 345°
2026-05-06 23:30 -24.99889 -53.50265 2479 ft 18 kts 315°
2026-05-06 23:30 -24.99790 -53.50373 2479 ft 21 kts 315°
2026-05-06 23:31 -24.99684 -53.50491 2479 ft 21 kts 315°
2026-05-06 23:31 -24.99577 -53.50607 2479 ft 21 kts 315°
2026-05-06 23:31 -24.99489 -53.50687 2479 ft 11 kts 346°
2026-05-06 23:31 -24.99447 -53.50725 2479 ft 6 kts 243°
2026-05-06 23:32 -24.99474 -53.50720 2479 ft 2 kts 135°
2026-05-06 23:32 -24.99536 -53.50651 2479 ft 46 kts 134°
2026-05-06 23:33 -24.99967 -53.50182 2480 ft 123 kts 134°
2026-05-06 23:33 -25.00726 -53.49359 2597 ft 171 kts 130°
2026-05-06 23:33 -25.01553 -53.48424 3287 ft 174 kts 126°
2026-05-06 23:33 -25.02357 -53.47430 3857 ft 179 kts 125°
2026-05-06 23:34 -25.03224 -53.46350 4228 ft 200 kts 126°
2026-05-06 23:34 -25.04216 -53.45148 4658 ft 221 kts 127°
2026-05-06 23:34 -25.05291 -53.43864 5189 ft 237 kts 127°
2026-05-06 23:34 -25.06440 -53.42490 5685 ft 256 kts 127°
2026-05-06 23:35 -25.07682 -53.41000 6237 ft 273 kts 128°
2026-05-06 23:35 -25.09010 -53.39403 6831 ft 287 kts 128°
2026-05-06 23:35 -25.10379 -53.37759 7537 ft 296 kts 128°
2026-05-06 23:35 -25.11780 -53.36079 8322 ft 301 kts 128°
2026-05-06 23:36 -25.13208 -53.34365 9108 ft 306 kts 128°
2026-05-06 23:36 -25.14645 -53.32638 9894 ft 311 kts 128°
2026-05-06 23:36 -25.16119 -53.30863 10614 ft 318 kts 129°
2026-05-06 23:36 -25.17645 -53.29019 11066 ft 334 kts 129°
2026-05-06 23:37 -25.19243 -53.27089 11491 ft 350 kts 130°
2026-05-06 23:37 -25.20924 -53.25059 11919 ft 364 kts 130°
2026-05-06 23:37 -25.22665 -53.22960 12243 ft 381 kts 130°
2026-05-06 23:37 -25.24471 -53.20784 12778 ft 389 kts 131°
2026-05-06 23:38 -25.26341 -53.18532 13394 ft 395 kts 131°
2026-05-06 23:38 -25.28193 -53.16300 14081 ft 397 kts 131°
2026-05-06 23:38 -25.30072 -53.14034 14808 ft 399 kts 132°
2026-05-06 23:38 -25.31937 -53.11782 15464 ft 402 kts 132°
2026-05-06 23:39 -25.33854 -53.09465 16069 ft 407 kts 133°
2026-05-06 23:39 -25.35775 -53.07142 16696 ft 411 kts 133°
2026-05-06 23:39 -25.37693 -53.04821 17419 ft 411 kts 133°
2026-05-06 23:39 -25.39628 -53.02444 18011 ft 415 kts 130°
2026-05-06 23:40 -25.41287 -52.99817 18555 ft 421 kts 119°
2026-05-06 23:40 -25.42355 -52.96816 19103 ft 426 kts 104°
2026-05-06 23:40 -25.42755 -52.93563 19716 ft 428 kts 92°
2026-05-06 23:40 -25.42641 -52.90272 20194 ft 433 kts 83°
2026-05-06 23:41 -25.42168 -52.86946 20744 ft 437 kts 78°
2026-05-06 23:41 -25.41530 -52.83666 21309 ft 439 kts 76°
2026-05-06 23:41 -25.40824 -52.80387 21876 ft 442 kts 75°
2026-05-06 23:41 -25.40096 -52.77071 22357 ft 447 kts 76°
2026-05-06 23:42 -25.39366 -52.73692 22913 ft 450 kts 76°
2026-05-06 23:42 -25.38657 -52.70316 23342 ft 456 kts 76°
2026-05-06 23:42 -25.37952 -52.66874 23771 ft 461 kts 77°
2026-05-06 23:42 -25.37257 -52.63413 24285 ft 464 kts 77°
2026-05-06 23:43 -25.36564 -52.59916 24711 ft 469 kts 77°
2026-05-06 23:43 -25.35872 -52.56391 25156 ft 473 kts 77°
2026-05-06 23:43 -25.35171 -52.52810 25572 ft 478 kts 77°
2026-05-06 23:43 -25.34473 -52.49233 26041 ft 481 kts 77°
2026-05-06 23:44 -25.33761 -52.45589 26366 ft 487 kts 78°
2026-05-06 23:44 -25.33045 -52.41921 26881 ft 489 kts 78°
2026-05-06 23:44 -25.32328 -52.38255 27260 ft 493 kts 78°
2026-05-06 23:44 -25.31599 -52.34536 27638 ft 498 kts 77°
2026-05-06 23:45 -25.30855 -52.30745 27997 ft 502 kts 77°
2026-05-06 23:45 -25.30113 -52.26975 28384 ft 505 kts 77°
2026-05-06 23:45 -25.29372 -52.23215 28829 ft 506 kts 77°
2026-05-06 23:45 -25.28621 -52.19421 29450 ft 504 kts 78°
2026-05-06 23:46 -25.27870 -52.15637 30044 ft 502 kts 78°
2026-05-06 23:46 -25.27120 -52.11858 30603 ft 501 kts 78°
2026-05-06 23:46 -25.26376 -52.08122 31098 ft 500 kts 78°
2026-05-06 23:46 -25.25629 -52.04374 31578 ft 500 kts 79°
2026-05-06 23:47 -25.24882 -52.00628 32029 ft 500 kts 79°
2026-05-06 23:47 -25.24136 -51.96896 32476 ft 500 kts 79°
2026-05-06 23:47 -25.23386 -51.93147 32988 ft 498 kts 80°
2026-05-06 23:47 -25.22633 -51.89388 33414 ft 498 kts 80°
2026-05-06 23:48 -25.21885 -51.85649 33813 ft 499 kts 80°
2026-05-06 23:48 -25.21132 -51.81886 34276 ft 498 kts 80°
2026-05-06 23:48 -25.20381 -51.78138 34724 ft 498 kts 81°
2026-05-06 23:48 -25.19639 -51.74445 35167 ft 497 kts 80°
2026-05-06 23:49 -25.18886 -51.70713 35624 ft 495 kts 80°
2026-05-06 23:49 -25.18131 -51.66975 35997 ft 495 kts 81°
2026-05-06 23:49 -25.17391 -51.63309 36311 ft 497 kts 80°
2026-05-06 23:49 -25.16635 -51.59576 36678 ft 496 kts 81°
2026-05-06 23:50 -25.15882 -51.55865 37054 ft 495 kts 81°
2026-05-06 23:50 -25.14370 -51.48437 37233 ft 498 kts 81°
2026-05-06 23:50 -25.13617 -51.44743 37234 ft 496 kts 81°
2026-05-06 23:51 -25.12102 -51.37343 37238 ft 496 kts 81°
2026-05-06 23:51 -25.10581 -51.29924 37240 ft 495 kts 81°
2026-05-06 23:52 -25.09069 -51.22559 37236 ft 494 kts 81°
2026-05-06 23:52 -25.07551 -51.15188 37209 ft 493 kts 81°
2026-05-06 23:53 -25.06038 -51.07869 37183 ft 491 kts 81°
2026-05-06 23:53 -25.04513 -51.00499 37159 ft 491 kts 81°
2026-05-06 23:54 -25.02993 -50.93208 37167 ft 490 kts 81°
2026-05-06 23:54 -25.01457 -50.85870 37185 ft 491 kts 81°
2026-05-06 23:55 -24.99928 -50.78581 37203 ft 491 kts 81°
2026-05-06 23:55 -24.98387 -50.71244 37219 ft 493 kts 81°
2026-05-06 23:56 -24.96839 -50.63897 37217 ft 493 kts 81°
2026-05-06 23:56 -24.95289 -50.56547 37215 ft 493 kts 81°
2026-05-06 23:57 -24.93745 -50.49241 37214 ft 493 kts 81°
2026-05-06 23:57 -24.92186 -50.41890 37217 ft 493 kts 81°
2026-05-06 23:58 -24.90618 -50.34521 37223 ft 492 kts 81°
2026-05-06 23:58 -24.89056 -50.27211 37231 ft 492 kts 81°
2026-05-06 23:59 -24.87496 -50.19913 37235 ft 492 kts 81°
2026-05-06 23:59 -24.85924 -50.12580 37234 ft 491 kts 81°
2026-05-07 00:00 -24.84359 -50.05307 37244 ft 491 kts 81°
2026-05-07 00:00 -24.82775 -49.97957 37253 ft 492 kts 81°
2026-05-07 00:01 -24.81200 -49.90654 37245 ft 492 kts 81°
2026-05-07 00:01 -24.79617 -49.83335 37242 ft 494 kts 81°
2026-05-07 00:02 -24.77865 -49.76030 37248 ft 495 kts 78°
2026-05-07 00:02 -24.75924 -49.68745 37244 ft 494 kts 78°
2026-05-07 00:03 -24.73977 -49.61538 37236 ft 494 kts 78°
2026-05-07 00:03 -24.72036 -49.54285 37224 ft 495 kts 78°
2026-05-07 00:04 -24.70115 -49.47038 37210 ft 495 kts 78°
2026-05-07 00:04 -24.68198 -49.39787 37201 ft 495 kts 78°
2026-05-07 00:05 -24.66294 -49.32561 37192 ft 493 kts 78°
2026-05-07 00:05 -24.64397 -49.25304 37184 ft 496 kts 78°
2026-05-07 00:06 -24.62492 -49.18040 37193 ft 494 kts 78°
2026-05-07 00:06 -24.60578 -49.10812 37203 ft 492 kts 78°
2026-05-07 00:07 -24.58644 -49.03627 37207 ft 492 kts 78°
2026-05-07 00:07 -24.56699 -48.96449 37203 ft 490 kts 78°
2026-05-07 00:08 -24.54754 -48.89276 37207 ft 491 kts 78°
2026-05-07 00:08 -24.52810 -48.82106 37202 ft 491 kts 78°
2026-05-07 00:09 -24.50870 -48.74955 37197 ft 490 kts 78°
2026-05-07 00:09 -24.48930 -48.67791 37181 ft 489 kts 78°
2026-05-07 00:10 -24.46989 -48.60614 37169 ft 490 kts 78°
2026-05-07 00:10 -24.45047 -48.53441 37160 ft 491 kts 78°
2026-05-07 00:11 -24.43104 -48.46290 37154 ft 490 kts 78°
2026-05-07 00:11 -24.41160 -48.39151 37151 ft 489 kts 78°
2026-05-07 00:12 -24.39194 -48.31947 37151 ft 490 kts 78°
2026-05-07 00:12 -24.37232 -48.24816 37145 ft 489 kts 77°
2026-05-07 00:13 -24.34415 -48.18034 37137 ft 497 kts 56°
2026-05-07 00:13 -24.32127 -48.15174 37141 ft 501 kts 43°
2026-05-07 00:13 -24.29386 -48.12858 37137 ft 502 kts 32°
2026-05-07 00:14 -24.23342 -48.08978 37132 ft 501 kts 27°
2026-05-07 00:14 -24.17165 -48.05369 37135 ft 500 kts 26°
2026-05-07 00:15 -24.10982 -48.01812 37149 ft 500 kts 26°
2026-05-07 00:15 -24.04834 -47.98254 37168 ft 501 kts 27°
2026-05-07 00:16 -23.98694 -47.94674 37194 ft 500 kts 27°
2026-05-07 00:16 -23.92488 -47.91045 37202 ft 502 kts 27°
2026-05-07 00:17 -23.86328 -47.87438 37202 ft 501 kts 27°
2026-05-07 00:17 -23.80202 -47.83784 37100 ft 501 kts 31°
2026-05-07 00:18 -23.77284 -47.81696 36683 ft 496 kts 37°
2026-05-07 00:18 -23.74536 -47.79397 36143 ft 493 kts 40°
2026-05-07 00:18 -23.71961 -47.77000 35499 ft 492 kts 43°
2026-05-07 00:18 -23.69439 -47.74485 34785 ft 493 kts 44°
2026-05-07 00:19 -23.66962 -47.71913 34037 ft 495 kts 46°
2026-05-07 00:19 -23.64458 -47.69260 33262 ft 497 kts 46°
2026-05-07 00:19 -23.61991 -47.66626 32539 ft 501 kts 46°
2026-05-07 00:19 -23.59516 -47.63982 31766 ft 505 kts 46°
2026-05-07 00:20 -23.57007 -47.61309 30950 ft 507 kts 45°
2026-05-07 00:20 -23.54458 -47.58604 30175 ft 508 kts 46°
2026-05-07 00:20 -23.51941 -47.55942 29416 ft 507 kts 45°
2026-05-07 00:20 -23.49400 -47.53263 28652 ft 506 kts 45°
2026-05-07 00:21 -23.46873 -47.50607 27887 ft 505 kts 45°
2026-05-07 00:21 -23.44361 -47.47971 27132 ft 503 kts 45°
2026-05-07 00:21 -23.41866 -47.45357 26376 ft 501 kts 45°
2026-05-07 00:21 -23.39344 -47.42718 25614 ft 499 kts 45°
2026-05-07 00:22 -23.36866 -47.40126 24863 ft 496 kts 45°
2026-05-07 00:22 -23.34400 -47.37550 24093 ft 490 kts 45°
2026-05-07 00:22 -23.31972 -47.35015 23326 ft 473 kts 45°
2026-05-07 00:22 -23.29652 -47.32596 22582 ft 456 kts 45°
2026-05-07 00:23 -23.27390 -47.30239 21845 ft 441 kts 45°
2026-05-07 00:23 -23.25211 -47.27969 21116 ft 428 kts 45°
2026-05-07 00:23 -23.23104 -47.25773 20387 ft 416 kts 45°
2026-05-07 00:23 -23.21040 -47.23621 19657 ft 404 kts 45°
2026-05-07 00:24 -23.19046 -47.21540 18930 ft 393 kts 45°
2026-05-07 00:24 -23.17114 -47.19521 18221 ft 383 kts 45°
2026-05-07 00:24 -23.15216 -47.17538 17523 ft 373 kts 45°
2026-05-07 00:24 -23.13410 -47.15618 16837 ft 362 kts 47°
2026-05-07 00:25 -23.11799 -47.13529 16224 ft 353 kts 60°
2026-05-07 00:25 -23.10881 -47.11162 15625 ft 340 kts 78°
2026-05-07 00:25 -23.10617 -47.08652 15029 ft 329 kts 90°
2026-05-07 00:25 -23.10790 -47.06238 14439 ft 320 kts 102°
2026-05-07 00:26 -23.11545 -47.04002 13845 ft 313 kts 120°
2026-05-07 00:26 -23.12850 -47.02156 13263 ft 307 kts 132°
2026-05-07 00:26 -23.14339 -47.00546 12770 ft 299 kts 134°
2026-05-07 00:26 -23.15826 -46.99003 12307 ft 291 kts 134°
2026-05-07 00:27 -23.17268 -46.97505 11879 ft 287 kts 134°
2026-05-07 00:27 -23.18709 -46.95989 11417 ft 289 kts 134°
2026-05-07 00:27 -23.20155 -46.94458 11153 ft 283 kts 134°
2026-05-07 00:27 -23.21532 -46.92997 10919 ft 276 kts 133°
2026-05-07 00:28 -23.22899 -46.91547 10683 ft 270 kts 134°
2026-05-07 00:28 -23.24239 -46.90125 10445 ft 265 kts 133°
2026-05-07 00:28 -23.25538 -46.88747 10205 ft 260 kts 133°
2026-05-07 00:28 -23.26817 -46.87388 9964 ft 255 kts 134°
2026-05-07 00:29 -23.28085 -46.86037 9722 ft 251 kts 134°
2026-05-07 00:29 -23.29327 -46.84713 9479 ft 247 kts 133°
2026-05-07 00:30 -23.32916 -46.80885 8760 ft 239 kts 133°
2026-05-07 00:30 -23.34106 -46.79618 8521 ft 239 kts 133°
2026-05-07 00:30 -23.35296 -46.78357 8293 ft 233 kts 133°
2026-05-07 00:30 -23.36442 -46.77148 8037 ft 229 kts 134°
2026-05-07 00:31 -23.37582 -46.75942 7746 ft 227 kts 133°
2026-05-07 00:31 -23.38704 -46.74750 7457 ft 225 kts 133°
2026-05-07 00:31 -23.39818 -46.73562 7169 ft 223 kts 133°
2026-05-07 00:31 -23.40928 -46.72382 6889 ft 221 kts 133°
2026-05-07 00:32 -23.42015 -46.71223 6645 ft 217 kts 133°
2026-05-07 00:32 -23.43021 -46.70011 6403 ft 211 kts 124°
2026-05-07 00:32 -23.43855 -46.68708 6160 ft 208 kts 120°
2026-05-07 00:32 -23.44637 -46.67415 5927 ft 205 kts 121°
2026-05-07 00:33 -23.45429 -46.66136 5698 ft 199 kts 122°
2026-05-07 00:33 -23.46195 -46.64918 5456 ft 195 kts 122°
2026-05-07 00:33 -23.46955 -46.63695 5210 ft 191 kts 120°
2026-05-07 00:33 -23.47393 -46.62382 4957 ft 185 kts 89°
2026-05-07 00:34 -23.47167 -46.61025 4710 ft 178 kts 74°
2026-05-07 00:34 -23.46864 -46.59780 4485 ft 164 kts 76°
2026-05-07 00:34 -23.46573 -46.58619 4271 ft 157 kts 74°
2026-05-07 00:34 -23.46267 -46.57496 4059 ft 153 kts 73°
2026-05-07 00:35 -23.45967 -46.56385 3859 ft 155 kts 75°
2026-05-07 00:35 -23.45668 -46.55270 3656 ft 155 kts 74°
2026-05-07 00:35 -23.45355 -46.54135 3462 ft 155 kts 74°
2026-05-07 00:35 -23.45058 -46.53022 3262 ft 154 kts 75°
2026-05-07 00:36 -23.44753 -46.51900 3066 ft 155 kts 74°
2026-05-07 00:36 -23.44434 -46.50776 2857 ft 154 kts 73°
2026-05-07 00:36 -23.44143 -46.49670 2656 ft 152 kts 75°
2026-05-07 00:36 -23.43847 -46.48574 2483 ft 150 kts 75°
2026-05-07 00:37 -23.43587 -46.47615 2468 ft 105 kts 74°
2026-05-07 00:37 -23.43427 -46.47024 2463 ft 58 kts 74°
2026-05-07 00:37 -23.43345 -46.46721 2458 ft 36 kts 74°
2026-05-07 00:37 -23.43267 -46.46460 2452 ft 33 kts 63°
2026-05-07 00:38 -23.43131 -46.46274 2450 ft 29 kts 44°
2026-05-07 00:38 -23.43028 -46.46167 2451 ft 18 kts 44°
2026-05-07 00:38 -23.42907 -46.46153 2449 ft 19 kts 344°
2026-05-07 00:38 -23.42774 -46.46195 2449 ft 19 kts 345°
2026-05-07 00:39 -23.42650 -46.46235 2450 ft 18 kts 341°
2026-05-07 00:39 -23.42633 -46.46354 2448 ft 18 kts 253°
2026-05-07 00:39 -23.42672 -46.46491 2445 ft 19 kts 253°
2026-05-07 00:39 -23.42710 -46.46634 2445 ft 19 kts 255°
2026-05-07 00:40 -23.42747 -46.46773 2445 ft 19 kts 253°
2026-05-07 00:40 -23.42786 -46.46916 2443 ft 20 kts 254°
2026-05-07 00:40 -23.42824 -46.47059 2444 ft 19 kts 254°
2026-05-07 00:40 -23.42860 -46.47190 2444 ft 16 kts 253°
2026-05-07 00:41 -23.42889 -46.47297 2445 ft 13 kts 253°
2026-05-07 00:41 -23.42914 -46.47394 2445 ft 13 kts 252°
2026-05-07 00:41 -23.42941 -46.47489 2446 ft 13 kts 255°
2026-05-07 00:41 -23.42967 -46.47591 2446 ft 14 kts 252°
2026-05-07 00:42 -23.43000 -46.47708 2447 ft 17 kts 253°
2026-05-07 00:42 -23.43035 -46.47841 2447 ft 20 kts 253°
2026-05-07 00:42 -23.43076 -46.47990 2446 ft 20 kts 253°
2026-05-07 00:42 -23.43072 -46.48124 2446 ft 18 kts 331°
2026-05-07 00:43 -23.42945 -46.48141 2446 ft 17 kts 355°
2026-05-07 00:43 -23.42832 -46.48152 2447 ft 12 kts 355°
2026-05-07 00:43 -23.42805 -46.48212 2447 ft 7 kts 266°
2026-05-07 00:43 -23.42807 -46.48243 2447 ft 0 kts 265°
2026-05-07 00:44 -23.42807 -46.48244 2447 ft 0 kts 266°